9P/Tempel 1 (2022)

Japanese version
Home page
Updated on April 27, 2021

---------------------------------------------------------------------

* Profile

* Pictures

* Orbital Elements

Epoch 2022 Mar. 2.0 TT = JDT 2459640.5
T 2022 Mar. 4.94985 TT                                  Rudenko
q   1.5442325            (2000.0)            P               Q
n   0.17662924     Peri.  179.34953     -0.37339905     +0.91208695
a   3.1460165      Node    68.71420     -0.85193985     -0.26492380
e   0.5091467      Incl.   10.46999     -0.36711257     -0.31291018
P   5.58
From 7658 observations 1972 May 10-2021 Mar. 10, mean residual 0".6.
     Nongravitational parameters A1 = +0.01, A2 = +0.0015.

* Finding Charts

* Magnitudes Graph

        m1 = 14.0 + 5 log d +  7.5 log r          [    ,-635]  (             - 2020 June  7)
        m1 =  7.5 + 5 log d + 18.0 log r(t + 15)  [-635, 310]  (2020 June  7 - 2023 Jan.  8)
        m1 = 11.5 + 5 log d + 10.0 log r          [ 310,    ]  (2023 Jan.  8 -             )

---------------------------------------------------------------------

The orbital elements are published on M.P.E.C. 2021-F20.
The charts are made with StellaNavigator Ver.10 (AstroArts).
The magnitudes graphs are made with Comet for Windows.

---------------------------------------------------------------------

Copyright(C) Seiichi Yoshida (comet@aerith.net). All rights reserved.